Aeroporto :
LOGIN :

Iscrizione | Disclaimer

   EN    FR    IT 

 










Sommario :    VFR   VFR Marginale   IFR   IFR Intensivo   IFR Molto Intensivo
Visibilità : 
Base nubi : 
>= 8 km
>= 3000ft
5 / 8 km
1000 / 3000 ft
1500m / 5 km
500 / 1000 ft
800 / 1500m
200 / 500 ft
< 800m
< 200 ft
Simboli :   Temporali  Nebbia  Neve Forte  Precipitazioni Forti  Vento > 20 kt
SIGMETs :   Varie  Temporali  Ghiacco  Turbolenza  Onda orograficha  Ceneri Vulcaniche






- Altitudine del aeroporto : 789 ft
- Codice IATA : BZO


LIPB - Bolzano

ULTIMO METAR :
  • 151750Z VRB02KT 3000 SN BR SCT010 OVC030 00/00 Q1006 RERA

METARs OBSOLETI :
  • 151708Z VRB02KT 3000 RASN BR SCT010 OVC030 00/00 Q1005 RESN
  • 151655Z 00000KT 3000 SN BR SCT010 OVC030 00/00 Q1005
  • 151550Z VRB02KT 2500 RA BR SCT005 OVC030 01/01 Q1005

TAF TAF LIPB
Valido dal 15 a 18 ore il 16 a 18 ore UTC


151700Z 1518/1618 VRB05KT 6000 RA SCT010 BKN020
BECMG 1521/1523 NSW
BECMG 1603/1605 RA



MetMap, La meteo Aeronautica in un colpo d'occhio ! - Copyright ORBIFLY Dicembre 2007 - Disclaimer

ORBIFLY MET'MAP TEAM :

Programmazione e sviluppo : Alexandra Zaïnal
Concezione e sviluppo : Baudouin d'Aumeries
Co-Programmazione e sviluppo : Marc-Olivier Méhu
Supporto tecnico e logistico : Manuel Goepfert
Aiuto per la traduzione : Arnaldo La Scala

Contatto : metmap@orbifly.com




FONTI E CREDITI :

   NOAA